| time (UTC) | temp C | wind direction | speed KPH | gust KPH | rain 1hr cm | rain 24hr cm | rain mn cm | humidity % | barometer mb |
| 20260505040116 | 18 | 0.0 | 0.0 | 0.00 | 0.00 | 0.00 | 61 | 1011.2 | |
| 20260505035136 | 18 | 315 | 1.6 | 3.2 | 0.00 | 0.00 | 0.00 | 59 | 1011.0 |
| 20260505034115 | 19 | 0.0 | 0.0 | 0.00 | 0.00 | 0.00 | 57 | 1010.8 | |
| 20260505033116 | 20 | 0.0 | 1.6 | 0.00 | 0.00 | 0.00 | 55 | 1010.8 | |
| 20260505032116 | 20 | 293 | 1.6 | 3.2 | 0.00 | 0.00 | 0.00 | 55 | 1010.7 |
| 20260505031135 | 21 | 0.0 | 1.6 | 0.00 | 0.00 | 0.00 | 54 | 1010.5 | |
| 20260505030116 | 21 | 0.0 | 0.0 | 0.00 | 0.00 | 0.00 | 54 | 1010.5 | |
| 20260505025115 | 22 | 0.0 | 0.0 | 0.00 | 0.00 | 0.00 | 54 | 1010.3 | |
| 20260505024135 | 22 | 0.0 | 0.0 | 0.00 | 0.00 | 0.00 | 50 | 1010.2 | |
| 20260505023115 | 23 | 0 | 1.6 | 1.6 | 0.00 | 0.00 | 0.00 | 51 | 1010.2 |
| 20260505022115 | 23 | 0.0 | 1.6 | 0.00 | 0.00 | 0.00 | 49 | 1010.1 | |
| 20260505021115 | 24 | 0.0 | 1.6 | 0.00 | 0.00 | 0.00 | 46 | 1010.2 | |
| 20260505020116 | 25 | 0.0 | 1.6 | 0.00 | 0.00 | 0.00 | 45 | 1010.2 | |
| 20260505015115 | 25 | 0.0 | 1.6 | 0.00 | 0.00 | 0.00 | 42 | 1010.2 | |
| 20260505014136 | 25 | 0.0 | 1.6 | 0.00 | 0.00 | 0.00 | 41 | 1010.2 | |
| 20260505013135 | 25 | 0.0 | 1.6 | 0.00 | 0.00 | 0.00 | 41 | 1010.1 | |
| 20260505012115 | 25 | 0.0 | 1.6 | 0.00 | 0.00 | 0.00 | 40 | 1010.2 | |
| 20260505011115 | 26 | 0.0 | 1.6 | 0.00 | 0.00 | 0.00 | 39 | 1010.2 | |
| 20260505010115 | 26 | 270 | 1.6 | 3.2 | 0.00 | 0.00 | 0.00 | 38 | 1010.2 |
| 20260505005115 | 26 | 135 | 1.6 | 3.2 | 0.00 | 0.00 | 0.00 | 37 | 1010.2 |
| 20260505004115 | 26 | 0.0 | 1.6 | 0.00 | 0.00 | 0.00 | 37 | 1010.2 | |
| 20260505003115 | 26 | 248 | 1.6 | 1.6 | 0.00 | 0.00 | 0.00 | 36 | 1010.3 |
| 20260505002136 | 26 | 0.0 | 1.6 | 0.00 | 0.00 | 0.00 | 37 | 1010.2 | |
| 20260505001115 | 26 | 135 | 3.2 | 4.8 | 0.00 | 0.00 | 0.00 | 37 | 1010.2 |
| 20260505000135 | 26 | 293 | 1.6 | 3.2 | 0.00 | 0.00 | 0.00 | 37 | 1010.3 |
| 20260504235115 | 25 | 135 | 3.2 | 4.8 | 0.00 | 0.00 | 0.00 | 38 | 1010.3 |
| 20260504234115 | 26 | 158 | 3.2 | 4.8 | 0.00 | 0.00 | 0.00 | 37 | 1010.4 |
| 20260504233115 | 26 | 315 | 3.2 | 4.8 | 0.00 | 0.00 | 0.00 | 36 | 1010.5 |
| 20260504232115 | 26 | 315 | 1.6 | 3.2 | 0.00 | 0.00 | 0.00 | 37 | 1010.5 |
| 20260504231115 | 26 | 0.0 | 1.6 | 0.00 | 0.00 | 0.00 | 36 | 1010.6 | |
| 20260504230135 | 26 | 315 | 1.6 | 1.6 | 0.00 | 0.00 | 0.00 | 36 | 1010.6 |
| 20260504225115 | 26 | 0.0 | 1.6 | 0.00 | 0.00 | 0.00 | 36 | 1010.7 | |
| 20260504224117 | 26 | 0.0 | 1.6 | 0.00 | 0.00 | 0.00 | 36 | 1010.8 | |
| 20260504223117 | 26 | 0.0 | 1.6 | 0.00 | 0.00 | 0.00 | 36 | 1010.9 | |
| 20260504222117 | 26 | 135 | 3.2 | 6.4 | 0.00 | 0.00 | 0.00 | 34 | 1011.2 |
| 20260504221117 | 26 | 0.0 | 1.6 | 0.00 | 0.00 | 0.00 | 37 | 1011.2 | |
| 20260504220117 | 26 | 225 | 1.6 | 3.2 | 0.00 | 0.00 | 0.00 | 36 | 1011.4 |
| 20260504215117 | 26 | 0.0 | 1.6 | 0.00 | 0.00 | 0.00 | 36 | 1011.5 | |
| 20260504214117 | 26 | 248 | 1.6 | 3.2 | 0.00 | 0.00 | 0.00 | 34 | 1011.4 |
| 20260504213117 | 26 | 315 | 1.6 | 1.6 | 0.00 | 0.00 | 0.00 | 34 | 1011.4 |
| 20260504212117 | 26 | 0.0 | 1.6 | 0.00 | 0.00 | 0.00 | 34 | 1011.5 | |
| 20260504211137 | 26 | 315 | 1.6 | 3.2 | 0.00 | 0.00 | 0.00 | 32 | 1011.5 |
| 20260504210117 | 27 | 338 | 1.6 | 3.2 | 0.00 | 0.00 | 0.00 | 32 | 1011.6 |
| 20260504205117 | 27 | 0.0 | 1.6 | 0.00 | 0.00 | 0.00 | 35 | 1011.6 | |
| 20260504204117 | 26 | 225 | 1.6 | 3.2 | 0.00 | 0.00 | 0.00 | 33 | 1011.6 |
| 20260504203117 | 27 | 0.0 | 1.6 | 0.00 | 0.00 | 0.00 | 37 | 1011.6 | |
| 20260504202117 | 26 | 0.0 | 1.6 | 0.00 | 0.00 | 0.00 | 38 | 1011.5 | |
| 20260504201137 | 26 | 0.0 | 1.6 | 0.00 | 0.00 | 0.00 | 38 | 1011.7 | |
| 20260504200117 | 26 | 203 | 1.6 | 3.2 | 0.00 | 0.00 | 0.00 | 39 | 1011.7 |
| 20260504195137 | 26 | 135 | 3.2 | 4.8 | 0.00 | 0.00 | 0.00 | 38 | 1011.7 |
| 20260504194117 | 26 | 248 | 1.6 | 6.4 | 0.00 | 0.00 | 0.00 | 40 | 1011.7 |
| 20260504193117 | 26 | 135 | 1.6 | 3.2 | 0.00 | 0.00 | 0.00 | 38 | 1011.8 |
| 20260504192157 | 26 | 0.0 | 1.6 | 0.00 | 0.00 | 0.00 | 39 | 1011.9 | |
| 20260504191116 | 25 | 0.0 | 1.6 | 0.00 | 0.00 | 0.00 | 41 | 1011.9 | |
| 20260504190117 | 26 | 0.0 | 1.6 | 0.00 | 0.00 | 0.00 | 42 | 1012.0 | |
| 20260504185117 | 24 | 158 | 1.6 | 4.8 | 0.00 | 0.00 | 0.00 | 42 | 1012.0 |
| 20260504184116 | 25 | 0.0 | 1.6 | 0.00 | 0.00 | 0.00 | 40 | 1012.2 | |
| 20260504183117 | 25 | 68 | 1.6 | 1.6 | 0.00 | 0.00 | 0.00 | 42 | 1012.1 |
| 20260504182157 | 23 | 180 | 1.6 | 3.2 | 0.00 | 0.00 | 0.00 | 44 | 1012.0 |
| 20260504181116 | 23 | 315 | 4.8 | 9.7 | 0.00 | 0.00 | 0.00 | 44 | 1012.0 |
| 20260504180117 | 23 | 0.0 | 1.6 | 0.00 | 0.00 | 0.00 | 46 | 1012.1 | |
| 20260504175117 | 23 | 135 | 1.6 | 3.2 | 0.00 | 0.00 | 0.00 | 47 | 1012.1 |
| 20260504174116 | 23 | 180 | 1.6 | 3.2 | 0.00 | 0.00 | 0.00 | 48 | 1012.0 |
| 20260504173116 | 22 | 68 | 1.6 | 3.2 | 0.00 | 0.00 | 0.00 | 48 | 1012.0 |
| 20260504172117 | 22 | 0.0 | 1.6 | 0.00 | 0.00 | 0.00 | 51 | 1012.0 | |
| 20260504171116 | 22 | 158 | 1.6 | 3.2 | 0.00 | 0.00 | 0.00 | 50 | 1012.0 |
| 20260504170117 | 21 | 0.0 | 1.6 | 0.00 | 0.00 | 0.00 | 54 | 1012.0 | |
| 20260504160116 | 17 | 0.0 | 0.0 | 0.00 | 0.00 | 0.00 | 64 | 1011.8 | |
| 20260504151117 | 13 | 0.0 | 0.0 | 0.00 | 0.00 | 0.00 | 76 | 1011.5 | |
| 20260504150116 | 13 | 0.0 | 1.6 | 0.00 | 0.00 | 0.00 | 77 | 1011.3 | |
| 20260504141116 | 12 | 0.0 | 0.0 | 0.00 | 0.00 | 0.00 | 82 | 1011.1 | |
| 20260504140116 | 12 | 0.0 | 0.0 | 0.00 | 0.00 | 0.00 | 83 | 1010.9 | |
| 20260504130136 | 12 | 0.0 | 0.0 | 0.00 | 0.00 | 0.00 | 87 | 1010.7 | |
| 20260504120116 | 12 | 0.0 | 0.0 | 0.00 | 0.00 | 0.00 | 85 | 1010.6 | |
| 20260504110116 | 13 | 0.0 | 0.0 | 0.00 | 0.00 | 0.00 | 81 | 1010.6 | |
| 20260504100136 | 14 | 0.0 | 0.0 | 0.00 | 0.00 | 0.00 | 77 | 1010.6 | |
| 20260504090116 | 15 | 0.0 | 0.0 | 0.00 | 0.00 | 0.00 | 73 | 1010.5 | |
| 20260504081116 | 15 | 0.0 | 0.0 | 0.00 | 0.00 | 0.00 | 71 | 1010.7 | |
| 20260504080115 | 15 | 0.0 | 0.0 | 0.00 | 0.00 | 0.00 | 71 | 1010.7 | |
| 20260504070116 | 16 | 0.0 | 0.0 | 0.00 | 0.00 | 0.00 | 67 | 1010.9 | |
| 20260504060116 | 16 | 0.0 | 0.0 | 0.00 | 0.00 | 0.00 | 64 | 1010.7 | |
| 20260504050116 | 17 | 0.0 | 0.0 | 0.00 | 0.00 | 0.00 | 62 | 1010.6 | |
| 20260504045116 | 17 | 0.0 | 0.0 | 0.00 | 0.00 | 0.00 | 62 | 1010.5 | |
| 20260504044116 | 17 | 0.0 | 0.0 | 0.00 | 0.00 | 0.00 | 61 | 1010.5 | |
| 20260504043136 | 17 | 0.0 | 0.0 | 0.00 | 0.00 | 0.00 | 61 | 1010.6 | |
| 20260504042115 | 17 | 0.0 | 0.0 | 0.00 | 0.00 | 0.00 | 62 | 1010.6 | |
| 20260504041116 | 18 | 0.0 | 0.0 | 0.00 | 0.00 | 0.00 | 60 | 1010.5 |